Location: Flitcham
(52.8000°N, 0.5667°E)
Time: 10:44:27
(UTC+00:00)

Meteor 1-5 Rocket - Pass Details

Date: 15 May 2026
Orbit: 788 x 913 km, 81.2° (Epoch: 8 June)

Event Time Altitude Azimuth Distance (km) Brightness Sun altitude
Rises 21:04:07 0° 347° (NNW) 3,442 8.6 -9.3°
Reaches altitude 10° 21:06:33 10° 350° (N) 2,520 7.7 -9.5°
Maximum altitude 21:12:17 69° 74° (ENE) 949 4.4 -10.1°
Enters shadow 21:17:39 13° 157° (SSE) 2,388 5.9 -10.6°
